Weather History for Minneapolis, MN

Change the Weather History Date:

Saturday, June 7, 2014

  Actual Average Record
Temperature  
Mean Temperature 59 °F 66 °F  
Max Temperature 67 °F 76 °F 103 °F (2011)
Min Temperature 51 °F 56 °F 35 °F (1998)
Degree Days  
Heating Degree Days 6 2  
Month to date heating degree days 6 21  
Since 1 June heating degree days 6 21  
Since 1 July heating degree days 8582 7557  
Cooling Degree Days 0 3  
Month to date cooling degree days 29 21  
Year to date cooling degree days 81 63  
Since 1 June cooling degree days 29 21  
Growing Degree Days 6 (Base 50)    
Moisture  
Dew Point 55 °F    
Average Humidity 89    
Maximum Humidity 100    
Minimum Humidity 78    
Precipitation  
Precipitation 0.89 in 0.13 in 2.91 in (1984)
Month to date precipitation 3.31 0.89  
Year to date precipitation 17.78 10.47  
Snow  
Snow 0.00 in 0.00 in 0.00 in ()
Month to date snowfall 0.0 0.0  
Since 1 June snowfall 0.0 0.0  
Since 1 July snowfall 69.8 54.4  
Snow Depth 0.00 in    
Sea Level Pressure  
Sea Level Pressure 30.00 in    
Wind  
Wind Speed 9 mph (North)    
Max Wind Speed 26 mph    
Max Gust Speed 34 mph    
Visibility 8 miles    
Events Rain , Thunderstorm    
T = Trace of Precipitation, MM = Missing Value Source: NWS Daily Summary

Daily Weather History Graph

Daily Weather History Graph

Search for Another Location

Airport:

Trip Planner

Search our weather history database for the weather conditions in past years. The results will help you decide how hot, cold, wet, or windy it might be!

Date:

Astronomy

Jun. 07, 2014 Rise Set
Actual Time 5:27 AM CDT 8:56 PM CDT
Civil Twilight 4:50 AM CDT 9:33 PM CDT
Nautical Twilight 4:02 AM CDT 10:22 PM CDT
Astronomical Twilight 2:59 AM CDT 11:24 PM CDT
Moon 3:01 PM CDT (6/7) 2:04 AM CDT (6/7)
Length of Visible Light 16h 42m
Length of Day
15h 29m
Waxing Gibbous, 68% of the Moon is Illuminated
Jun 7
Waxing Gibbous
Jun 12
Full
Jun 19
Last Quarter
Jun 27
New
Jul 5
First Quarter

Hourly Weather History & Observations

Time (CDT) Temp. Dew Point Humidity Pressure Visibility Wind Dir Wind Speed Gust Speed Precip Events Conditions
12:53 AM 66.9 °F 61.0 °F 81% 29.95 in 10.0 mi Calm Calm - N/A   Mostly Cloudy
1:17 AM 66.0 °F 61.0 °F 84% 29.92 in 10.0 mi NE 8.1 mph - N/A   Mostly Cloudy
1:53 AM 64.9 °F 61.0 °F 87% 29.92 in 10.0 mi North 6.9 mph - N/A   Scattered Clouds
2:53 AM 64.4 °F 60.8 °F 88% 29.90 in 10.0 mi NNE 6.9 mph - N/A   Mostly Cloudy
3:53 AM 64.9 °F 60.1 °F 84% 29.89 in 10.0 mi North 6.9 mph - N/A   Mostly Cloudy
4:02 AM 64.9 °F 60.1 °F 84% 29.90 in 10.0 mi North 5.8 mph - N/A Thunderstorm Thunderstorm
4:53 AM 60.1 °F 55.0 °F 83% 29.94 in 10.0 mi NNW 16.1 mph - 0.01 in Thunderstorm Thunderstorm
5:53 AM 57.0 °F 52.0 °F 83% 29.95 in 10.0 mi North 17.3 mph 26.5 mph 0.05 in Thunderstorm Thunderstorm
6:53 AM 55.4 °F 53.6 °F 94% 29.96 in 9.0 mi North 13.8 mph - N/A Rain , Thunderstorm Heavy Thunderstorms and Rain
7:20 AM 55.0 °F 53.1 °F 93% 29.98 in 10.0 mi North 13.8 mph 25.3 mph 0.01 in Rain , Thunderstorm Light Thunderstorms and Rain
7:27 AM 55.0 °F 53.1 °F 93% 29.96 in 1.8 mi North 19.6 mph 26.5 mph 0.01 in Rain , Thunderstorm Light Thunderstorms and Rain
7:49 AM 55.4 °F 53.6 °F 94% 30.05 in 1.0 mi WNW 15.0 mph 23.0 mph N/A Rain , Thunderstorm Thunderstorms and Rain
7:53 AM 53.6 °F 53.6 °F 100% 30.07 in 1.0 mi Variable 4.6 mph 23.0 mph N/A Rain , Thunderstorm Heavy Thunderstorms and Rain
8:16 AM 54.0 °F 54.0 °F 100% 30.04 in 1.5 mi North 13.8 mph - 0.27 in Rain , Thunderstorm Heavy Thunderstorms and Rain
8:20 AM 54.0 °F 54.0 °F 100% 30.03 in 1.5 mi NNW 17.3 mph - 0.29 in Rain , Thunderstorm Heavy Rain
8:29 AM 53.6 °F 53.6 °F 100% 30.01 in 2.0 mi NNW 18.4 mph - N/A Rain , Thunderstorm Rain
8:46 AM 54.0 °F 54.0 °F 100% 30.01 in 3.0 mi North 15.0 mph - 0.39 in Rain Heavy Rain
8:53 AM 54.0 °F 54.0 °F 100% 30.01 in 5.0 mi North 15.0 mph - 0.41 in Rain Light Rain
9:53 AM 55.4 °F 53.6 °F 94% 30.00 in 5.0 mi North 10.4 mph - N/A Rain Light Rain
10:01 AM 55.0 °F 54.0 °F 96% 29.99 in 7.0 mi North 12.7 mph - 0.00 in Rain Light Rain
10:32 AM 55.0 °F 54.0 °F 96% 30.02 in 4.0 mi NNE 9.2 mph - 0.03 in Rain Light Rain
10:53 AM 55.0 °F 54.0 °F 96% 30.02 in 3.0 mi North 9.2 mph - 0.06 in Rain Light Rain
11:18 AM 55.0 °F 54.0 °F 96% 30.01 in 5.0 mi North 10.4 mph - 0.03 in Rain Light Rain
11:53 AM 55.9 °F 55.0 °F 97% 30.01 in 4.0 mi North 10.4 mph - 0.05 in Rain Light Rain
12:31 PM 55.9 °F 55.0 °F 97% 30.00 in 9.0 mi North 9.2 mph - 0.02 in Rain Light Rain
12:53 PM 55.9 °F 55.0 °F 97% 30.00 in 9.0 mi North 9.2 mph - 0.02 in Rain Light Rain
1:53 PM 55.9 °F 54.0 °F 93% 29.99 in 7.0 mi North 13.8 mph - 0.01 in Rain Light Rain
2:53 PM 57.0 °F 55.0 °F 93% 29.98 in 10.0 mi North 8.1 mph 18.4 mph 0.00 in   Overcast
3:23 PM 57.0 °F 55.0 °F 93% 30.00 in 10.0 mi North 9.2 mph - N/A   Overcast
3:53 PM 57.0 °F 54.0 °F 89% 30.00 in 10.0 mi North 9.2 mph 19.6 mph N/A   Overcast
4:53 PM 57.9 °F 54.0 °F 87% 30.03 in 10.0 mi North 5.8 mph - N/A   Overcast
5:27 PM 57.9 °F 54.0 °F 87% 30.03 in 10.0 mi Variable 5.8 mph - N/A   Overcast
5:53 PM 59.0 °F 54.0 °F 83% 30.04 in 10.0 mi North 11.5 mph - N/A   Overcast
6:35 PM 57.9 °F 54.0 °F 87% 30.03 in 10.0 mi ENE 9.2 mph - N/A   Overcast
6:53 PM 57.9 °F 54.0 °F 87% 30.05 in 10.0 mi NE 5.8 mph - N/A   Mostly Cloudy
7:28 PM 59.0 °F 54.0 °F 83% 30.05 in 10.0 mi NE 6.9 mph - N/A   Mostly Cloudy
7:53 PM 60.1 °F 53.1 °F 78% 30.05 in 10.0 mi ENE 8.1 mph - N/A   Mostly Cloudy
8:53 PM 57.9 °F 52.0 °F 81% 30.06 in 10.0 mi NE 5.8 mph - N/A   Partly Cloudy
9:53 PM 57.0 °F 52.0 °F 83% 30.07 in 10.0 mi ENE 3.5 mph - N/A   Partly Cloudy
10:53 PM 55.9 °F 52.0 °F 87% 30.08 in 10.0 mi Calm Calm - N/A   Clear
11:53 PM 55.0 °F 52.0 °F 89% 30.09 in 10.0 mi NNW 3.5 mph - N/A   Clear